[TLELIST] Archives

 

[TLELIST] Current TLEs

April 20th 2024 PST

HST 1 20580U 90037B 24110.91025451 .00016475 00000-0 80481-3 0 9996 2 20580 28.4695 15.3361 0002664 113.1373 246.9500 15.16827025668178 ISS (ZARYA) 1 25544U 98067A 24111.14160880 .00026599 00000-0 46456-3 0 9996 2 25544 51.6399 243.2230 0004811 83.2147 282.8994 15.50471139449544 CXO 1 25867U 99040B 24112.33278554 .00000940 00000-0 00000+0 0 9999 2 25867 39.9529 159.3198 8942329 292.4515 0.0893 0.37815290 25505 ...Continue Reading

[TLELIST] Current TLEs

April 20th 2024 PST

HST 1 20580U 90037B 24110.91025451 .00016475 00000-0 80481-3 0 9996 2 20580 28.4695 15.3361 0002664 113.1373 246.9500 15.16827025668178 ISS (ZARYA) 1 25544U 98067A 24111.14160880 .00026599 00000-0 46456-3 0 9996 2 25544 51.6399 243.2230 0004811 83.2147 282.8994 15.50471139449544 CXO 1 25867U 99040B 24112.33278554 .00000940 00000-0 00000+0 0 9999 2 25867 39.9529 159.3198 8942329 292.4515 0.0893 0.37815290 25505 ...Continue Reading

[TLELIST] Current TLEs

April 19th 2024 PST

HST 1 20580U 90037B 24110.12069755 .00011555 00000-0 56237-3 0 9990 2 20580 28.4695 20.6181 0002671 107.1246 252.9639 15.16800468668315 ISS (ZARYA) 1 25544U 98067A 24109.87569424 .00025888 00000-0 45352-3 0 9994 2 25544 51.6387 249.4981 0004825 77.1403 58.5009 15.50400337449349 CXO 1 25867U 99040B 24112.33278554 .00000940 00000-0 00000+0 0 9999 2 25867 39.9529 159.3198 8942329 292.4515 0.0893 0.37815290 25505 ...Continue Reading

[TLELIST] Current TLEs

April 19th 2024 PST

HST 1 20580U 90037B 24110.12069755 .00011555 00000-0 56237-3 0 9990 2 20580 28.4695 20.6181 0002671 107.1246 252.9639 15.16800468668315 ISS (ZARYA) 1 25544U 98067A 24109.87569424 .00025888 00000-0 45352-3 0 9994 2 25544 51.6387 249.4981 0004825 77.1403 58.5009 15.50400337449349 CXO 1 25867U 99040B 24112.33278554 .00000940 00000-0 00000+0 0 9999 2 25867 39.9529 159.3198 8942329 292.4515 0.0893 0.37815290 25505 ...Continue Reading

[TLELIST] Current TLEs

April 18th 2024 PST

HST 1 20580U 90037B 24108.87054358 .00011457 00000-0 55801-3 0 9999 2 20580 28.4696 28.9793 0002655 93.6300 266.4596 15.16772606667861 ISS (ZARYA) 1 25544U 98067A 24109.41781315 .00027290 00000-0 47792-3 0 9998 2 25544 51.6383 251.7688 0005046 73.5951 24.7412 15.50379259449272 CXO 1 25867U 99040B 24109.68742308 .00000930 00000-0 00000+0 0 9995 2 25867 39.8987 159.5880 8946259 292.2469 359.9679 0.37811468 25493 ...Continue Reading

[TLELIST] Current TLEs

April 18th 2024 PST

HST 1 20580U 90037B 24108.87054358 .00011457 00000-0 55801-3 0 9999 2 20580 28.4696 28.9793 0002655 93.6300 266.4596 15.16772606667861 ISS (ZARYA) 1 25544U 98067A 24109.41781315 .00027290 00000-0 47792-3 0 9998 2 25544 51.6383 251.7688 0005046 73.5951 24.7412 15.50379259449272 CXO 1 25867U 99040B 24109.68742308 .00000930 00000-0 00000+0 0 9995 2 25867 39.8987 159.5880 8946259 292.2469 359.9679 0.37811468 25493 ...Continue Reading

[TLELIST] Current TLEs

April 17th 2024 PST

HST 1 20580U 90037B 24108.14675951 .00012782 00000-0 62380-3 0 9999 2 20580 28.4697 33.8214 0002605 86.3698 273.7193 15.16756159668016 ISS (ZARYA) 1 25544U 98067A 24108.06679608 .00019473 00000-0 34469-3 0 9990 2 25544 51.6384 258.4693 0004986 70.1481 42.8477 15.50291806449066 CXO 1 25867U 99040B 24109.68742308 .00000930 00000-0 00000+0 0 9995 2 25867 39.8987 159.5880 8946259 292.2469 359.9679 0.37811468 25493 ...Continue Reading

[TLELIST] Current TLEs

April 17th 2024 PST

HST 1 20580U 90037B 24108.14675951 .00012782 00000-0 62380-3 0 9999 2 20580 28.4697 33.8214 0002605 86.3698 273.7193 15.16756159668016 ISS (ZARYA) 1 25544U 98067A 24108.06679608 .00019473 00000-0 34469-3 0 9990 2 25544 51.6384 258.4693 0004986 70.1481 42.8477 15.50291806449066 CXO 1 25867U 99040B 24109.68742308 .00000930 00000-0 00000+0 0 9995 2 25867 39.8987 159.5880 8946259 292.2469 359.9679 0.37811468 25493 ...Continue Reading

[TLELIST] Current TLEs

April 16th 2024 PST

HST 1 20580U 90037B 24106.89656719 .00008963 00000-0 43514-3 0 9994 2 20580 28.4693 42.1843 0002593 76.9923 283.0959 15.16725948667560 ISS (ZARYA) 1 25544U 98067A 24107.35220508 .00018399 00000-0 32655-3 0 9993 2 25544 51.6391 262.0127 0004622 66.1655 16.0574 15.50259838448959 CXO 1 25867U 99040B 24109.68742308 .00000930 00000-0 00000+0 0 9995 2 25867 39.8987 159.5880 8946259 292.2469 359.9679 0.37811468 25493 ...Continue Reading

[TLELIST] Current TLEs

April 16th 2024 PST

HST 1 20580U 90037B 24106.89656719 .00008963 00000-0 43514-3 0 9994 2 20580 28.4693 42.1843 0002593 76.9923 283.0959 15.16725948667560 ISS (ZARYA) 1 25544U 98067A 24107.35220508 .00018399 00000-0 32655-3 0 9993 2 25544 51.6391 262.0127 0004622 66.1655 16.0574 15.50259838448959 CXO 1 25867U 99040B 24109.68742308 .00000930 00000-0 00000+0 0 9995 2 25867 39.8987 159.5880 8946259 292.2469 359.9679 0.37811468 25493 ...Continue Reading
  • This mailing list is a public mailing list - anyone may join or leave, at any time.
  • This mailing list is announce-only.

International Space Station (ISS) / Hubble Space Telescope (HST) / Chandra X-Ray Observatory Orbital Data via EMAIL

Privacy Policy:

Private list